Temp
-9 -9 -9 -9 -9 -9 -9 -9 -9 -9 -9 -8 -8 -8 -8 -8 -9 -10 -8 -8 -8 -8 -7 -7 -7 -7 -7 -7 -7 -7 -6 -6 -6 -6 -6 -6 -6 -7 -7 -6 -6 -6 -7 -7 -7 -7 -7 -8 -8
-10 -10 -10 -9 -9 -9 -9 -10 -9 -9 -9 -9 -9 -9 -9 -9 -8 -9 -9 -9 -9 -8 -8 -8 -8 -8 -8 -7 -7 -7 -7 -7 -6 -6 -6 -7 -7 -7 -7 -7 -7 -8 -8 -8 -8 -8 -8 -8 -8
-10 -10 -10 -10 -9 -9 -10 -10 -10 -10 -10 -10 -9 -9 -9 -9 -9 -9 -10 -9 -9 -9 -8 -8 -9 -9 -9 -8 -8 -8 -7 -7 -7 -7 -7 -7 -7 -7 -7 -7 -8 -8 -8 -8 -8 -8 -8 -8 -8
-11 -10 -10 -10 -10 -10 -10 -10 -10 -10 -10 -10 -10 -10 -10 -9 -9 -9 -10 -10 -10 -10 -9 -9 -9 -9 -9 -9 -8 -8 -8 -8 -7 -7 -8 -7 -7 -8 -8 -8 -8 -8 -8 -9 -9 -9 -8 -8 -8
-11 -11 -10 -9 -10 -10 -10 -10 -10 -10 -10 -10 -10 -10 -10 -10 -10 -9 -9 -10 -10 -10 -10 -10 -9 -9 -9 -9 -9 -9 -8 -8 -8 -8 -8 -8 -8 -9 -8 -8 -9 -9 -9 -9 -9 -9 -9 -9 -9
-11 -11 -10 -9 -10 -11 -11 -11 -10 -10 -10 -10 -11 -11 -11 -10 -10 -10 -10 -10 -10 -10 -10 -10 -10 -10 -9 -9 -9 -9 -9 -9 -9 -8 -9 -9 -9 -9 -9 -9 -9 -9 -9 -9 -9 -9 -9 -9 -9
-11 -10 -10 -10 -10 -11 -11 -11 -10 -11 -11 -10 -11 -11 -11 -10 -11 -11 -10 -10 -10 -10 -10 -10 -10 -10 -10 -9 -9 -9 -9 -9 -9 -9 -9 -10 -10 -10 -10 -10 -10 -10 -10 -10 -10 -10 -10 -10 -10
-11 -11 -10 -10 -10 -11 -11 -11 -11 -11 -11 -11 -10 -11 -11 -10 -11 -11 -11 -11 -11 -10 -10 -10 -10 -10 -10 -10 -10 -10 -10 -10 -10 -10 -10 -10 -10 -11 -11 -11 -10 -10 -10 -10 -10 -10 -10 -10 -10
-11 -10 -10 -10 -11 -11 -11 -10 -11 -11 -11 -11 -11 -11 -10 -11 -12 -12 -11 -11 -11 -11 -11 -11 -11 -11 -11 -10 -10 -10 -10 -10 -10 -11 -10 -10 -11 -11 -11 -11 -11 -11 -11 -11 -10 -10 -10 -10 -10
-10 -10 -10 -11 -11 -11 -11 -10 -11 -10 -11 -11 -11 -11 -11 -12 -11 -12 -12 -12 -12 -12 -11 -11 -11 -11 -11 -11 -11 -11 -11 -11 -11 -11 -11 -11 -11 -11 -12 -12 -12 -11 -11 -11 -11 -11 -11 -11 -11
-10 -10 -11 -10 -11 -11 -11 -10 -11 -11 -11 -11 -11 -11 -11 -11 -12 -12 -12 -12 -12 -12 -12 -11 -11 -11 -11 -11 -11 -11 -11 -11 -11 -11 -11 -11 -11 -11 -12 -12 -12 -12 -12 -12 -11 -11 -11 -11 -11
-10 -10 -11 -10 -11 -11 -11 -10 -10 -10 -11 -11 -11 -10 -11 -12 -12 -12 -12 -12 -12 -12 -12 -12 -12 -12 -11 -11 -11 -11 -11 -11 -11 -11 -11 -11 -11 -11 -12 -12 -12 -12 -12 -12 -12 -11 -11 -11 -11
-10 -11 -10 -11 -11 -11 -10 -10 -10 -10 -11 -11 -11 -11 -11 -11 -11 -11 -12 -12 -12 -13 -13 -12 -12 -12 -12 -11 -11 -11 -11 -12 -12 -11 -11 -12 -12 -11 -12 -12 -12 -12 -12 -12 -12 -12 -12 -12 -12
-10 -11 -11 -11 -11 -10 -10 -11 -9 -11 -12 -11 -11 -11 -11 -11 -11 -12 -12 -12 -12 -13 -13 -13 -13 -12 -12 -12 -12 -12 -12 -12 -12 -12 -12 -12 -12 -12 -12 -12 -13 -12 -12 -12 -12 -12 -12 -12 -12
-11 -11 -11 -11 -11 -10 -10 -10 -10 -12 -11 -11 -11 -11 -11 -11 -11 -11 -11 -12 -12 -13 -13 -13 -13 -13 -12 -12 -12 -12 -12 -12 -12 -12 -12 -12 -12 -12 -13 -13 -13 -13 -13 -13 -12 -12 -12 -12 -12
-11 -11 -11 -11 -11 -10 -10 -10 -10 -11 -11 -11 -11 -11 -11 -11 -11 -11 -11 -12 -12 -12 -12 -13 -13 -13 -13 -12 -12 -12 -12 -12 -12 -12 -12 -12 -13 -13 -13 -13 -13 -13 -13 -13 -13 -12 -12 -12 -12
-12 -11 -11 -11 -11 -10 -10 -10 -11 -10 -11 -11 -11 -11 -11 -11 -11 -11 -11 -12 -12 -12 -12 -12 -12 -13 -13 -13 -12 -12 -12 -12 -12 -12 -12 -12 -13 -13 -13 -14 -13 -13 -13 -13 -13 -13 -12 -12 -12
-12 -12 -12 -12 -11 -11 -11 -10 -11 -11 -11 -11 -10 -10 -10 -11 -11 -11 -11 -11 -12 -12 -12 -12 -12 -13 -13 -13 -13 -12 -12 -12 -12 -12 -12 -12 -12 -13 -13 -13 -14 -14 -13 -13 -13 -13 -13 -12 -12
-13 -13 -12 -12 -12 -12 -11 -10 -11 -11 -11 -11 -11 -11 -11 -11 -11 -11 -11 -11 -11 -12 -12 -12 -12 -13 -13 -13 -13 -13 -12 -12 -12 -12 -13 -13 -13 -13 -13 -13 -13 -13 -14 -13 -13 -13 -13 -13 -13
-13 -13 -13 -13 -13 -12 -12 -11 -11 -11 -11 -11 -11 -11 -12 -11 -11 -11 -11 -11 -11 -11 -12 -12 -12 -12 -13 -13 -13 -13 -13 -12 -12 -13 -13 -13 -13 -13 -13 -13 -13 -13 -13 -14 -13 -13 -13 -13 -13
-14 -13 -13 -13 -12 -12 -12 -11 -11 -11 -11 -11 -12 -12 -11 -11 -11 -11 -11 -11 -11 -11 -12 -12 -12 -12 -12 -13 -13 -13 -13 -13 -13 -13 -13 -13 -13 -13 -13 -13 -13 -13 -13 -14 -13 -13 -13 -13 -13
-14 -14 -13 -13 -13 -13 -12 -11 -11 -11 -11 -11 -11 -12 -12 -12 -12 -12 -12 -12 -11 -11 -11 -12 -12 -13 -13 -13 -13 -13 -13 -14 -13 -13 -13 -13 -13 -13 -13 -13 -14 -13 -13 -14 -14 -13 -13 -13 -13
-14 -14 -14 -13 -13 -12 -12 -12 -9 -11 -11 -12 -12 -12 -13 -13 -13 -13 -12 -12 -12 -12 -11 -12 -12 -12 -12 -13 -12 -13 -12 -13 -14 -13 -13 -13 -13 -14 -14 -13 -13 -14 -14 -14 -14 -13 -13 -13 -13
-14 -14 -14 -14 -13 -13 -12 -13 -10 -12 -13 -13 -13 -14 -14 -13 -13 -13 -13 -13 -13 -12 -12 -12 -12 -12 -12 -13 -12 -13 -12 -13 -14 -14 -14 -13 -14 -14 -14 -14 -14 -14 -14 -14 -14 -14 -14 -13 -13
-14 -15 -14 -14 -14 -13 -13 -13 -11 -13 -14 -14 -15 -15 -16 -16 -15 -13 -13 -13 -13 -13 -13 -12 -12 -13 -12 -13 -12 -13 -12 -13 -14 -14 -14 -14 -14 -14 -14 -14 -14 -14 -14 -14 -14 -14 -14 -14 -14
-15 -15 -15 -14 -14 -14 -13 -12 -13 -14 -14 -14 -15 -15 -15 -15 -15 -15 -15 -14 -14 -13 -13 -12 -13 -13 -13 -13 -12 -12 -13 -13 -14 -14 -14 -14 -14 -14 -14 -14 -14 -14 -14 -14 -14 -14 -14 -14 -14
-15 -15 -15 -15 -14 -14 -13 -14 -14 -14 -15 -15 -15 -15 -15 -15 -15 -15 -15 -15 -14 -14 -13 -13 -13 -13 -13 -13 -13 -13 -13 -13 -14 -14 -14 -14 -14 -14 -14 -14 -14 -14 -14 -14 -14 -14 -14 -14 -14
-15 -15 -15 -15 -15 -14 -14 -14 -15 -15 -16 -15 -15 -16 -16 -17 -17 -16 -15 -16 -15 -14 -14 -14 -14 -14 -13 -13 -13 -13 -13 -14 -14 -14 -14 -14 -14 -14 -15 -15 -15 -15 -15 -14 -15 -15 -15 -14 -14
-15 -15 -15 -15 -15 -15 -14 -13 -16 -17 -17 -16 -16 -18 -19 -18 -18 -17 -16 -16 -15 -15 -14 -14 -14 -14 -13 -13 -13 -13 -13 -14 -14 -14 -14 -14 -15 -15 -15 -15 -15 -15 -15 -15 -15 -15 -15 -15 -15
-15 -15 -15 -15 -16 -16 -16 -12 -17 -17 -17 -17 -18 -19 -20 -20 -20 -19 -18 -17 -16 -16 -15 -14 -14 -14 -13 -13 -13 -13 -13 -14 -14 -14 -14 -15 -15 -15 -15 -15 -15 -15 -15 -15 -15 -16 -16 -16 -16
Height
5809 5810 5812 5814 5818 5818 5822 5824 5824 5826 5828 5828 5830 5832 5833 5834 5833 5837 5835 5837 5838 5839 5839 5840 5842 5842 5844 5844 5846 5846 5848 5848 5849 5849 5848 5847 5846 5846 5845 5845 5845 5845 5845 5844 5844 5845 5845 5845 5846
5804 5807 5807 5808 5812 5814 5819 5818 5820 5821 5823 5826 5827 5828 5829 5828 5830 5831 5832 5833 5835 5835 5835 5836 5837 5838 5839 5840 5841 5842 5843 5844 5844 5844 5844 5843 5842 5843 5843 5842 5843 5843 5842 5842 5841 5842 5842 5841 5841
5799 5801 5802 5802 5807 5812 5815 5811 5814 5817 5819 5820 5823 5824 5824 5823 5826 5827 5829 5829 5831 5832 5833 5833 5834 5834 5834 5836 5836 5837 5838 5839 5840 5840 5840 5840 5840 5840 5840 5840 5840 5840 5840 5839 5839 5838 5838 5838 5839
5794 5796 5797 5799 5805 5807 5808 5806 5808 5812 5813 5816 5818 5820 5820 5822 5823 5825 5825 5826 5827 5827 5828 5830 5830 5830 5830 5831 5832 5833 5834 5835 5835 5836 5837 5837 5837 5837 5837 5837 5837 5837 5836 5836 5836 5836 5835 5836 5836
5790 5791 5791 5795 5802 5802 5802 5802 5804 5806 5807 5811 5813 5813 5814 5817 5820 5821 5822 5823 5824 5824 5825 5826 5826 5827 5827 5827 5828 5829 5830 5831 5831 5832 5832 5833 5833 5833 5833 5833 5833 5833 5833 5833 5832 5832 5832 5833 5833
5784 5786 5786 5791 5798 5798 5798 5798 5799 5801 5803 5805 5809 5808 5810 5813 5814 5816 5818 5818 5819 5820 5821 5823 5823 5823 5823 5824 5825 5825 5826 5826 5827 5827 5828 5828 5829 5829 5829 5829 5829 5829 5829 5830 5830 5830 5829 5829 5829
5778 5780 5781 5785 5792 5792 5794 5791 5795 5796 5798 5801 5802 5806 5804 5808 5810 5812 5813 5814 5814 5814 5816 5817 5817 5818 5819 5819 5820 5821 5822 5822 5823 5824 5824 5824 5824 5824 5825 5825 5825 5824 5825 5826 5827 5827 5827 5826 5825
5771 5774 5775 5778 5787 5788 5788 5784 5789 5790 5795 5792 5799 5801 5801 5800 5805 5806 5807 5809 5810 5810 5811 5812 5813 5813 5814 5815 5816 5816 5817 5818 5819 5819 5820 5820 5820 5821 5821 5822 5822 5822 5822 5823 5823 5823 5823 5822 5822
5765 5765 5768 5776 5780 5783 5778 5779 5782 5783 5787 5789 5793 5795 5793 5798 5799 5801 5802 5803 5804 5806 5807 5808 5809 5809 5810 5811 5812 5813 5814 5814 5815 5815 5816 5816 5817 5817 5818 5819 5820 5820 5820 5819 5819 5819 5818 5818 5818
5757 5760 5766 5770 5771 5771 5770 5774 5775 5776 5781 5782 5786 5787 5788 5790 5793 5795 5797 5798 5799 5801 5803 5804 5804 5805 5805 5807 5808 5809 5810 5811 5811 5812 5812 5812 5813 5813 5814 5815 5815 5816 5816 5816 5815 5814 5814 5813 5813
5752 5755 5760 5759 5762 5764 5765 5767 5767 5768 5772 5778 5779 5778 5781 5784 5786 5789 5791 5792 5794 5796 5798 5800 5800 5801 5801 5802 5803 5804 5805 5807 5807 5808 5809 5809 5809 5808 5808 5809 5810 5811 5810 5811 5810 5809 5809 5808 5807
5744 5749 5751 5753 5755 5757 5759 5760 5759 5763 5767 5769 5771 5773 5778 5779 5780 5782 5784 5786 5788 5790 5792 5794 5795 5795 5796 5797 5798 5799 5801 5802 5803 5804 5804 5804 5803 5803 5803 5804 5805 5805 5805 5804 5804 5804 5804 5802 5801
5738 5741 5743 5746 5749 5750 5751 5753 5755 5753 5760 5764 5767 5768 5772 5773 5775 5776 5778 5780 5781 5783 5785 5787 5788 5790 5790 5791 5792 5794 5795 5798 5799 5799 5799 5798 5798 5797 5797 5798 5799 5799 5798 5798 5798 5798 5798 5796 5795
5730 5734 5737 5739 5742 5743 5746 5748 5745 5751 5757 5756 5758 5762 5765 5766 5768 5769 5771 5773 5775 5776 5777 5779 5782 5784 5785 5786 5787 5787 5790 5791 5793 5794 5794 5793 5792 5791 5791 5792 5793 5793 5793 5792 5792 5792 5792 5790 5790
5722 5727 5729 5733 5735 5738 5739 5741 5743 5748 5749 5749 5752 5754 5756 5758 5760 5762 5765 5767 5768 5768 5769 5771 5774 5777 5779 5781 5781 5782 5783 5785 5787 5787 5788 5787 5786 5786 5786 5786 5787 5787 5787 5787 5786 5786 5785 5784 5783
5714 5720 5723 5726 5730 5732 5733 5739 5739 5741 5743 5744 5744 5746 5748 5751 5753 5756 5758 5761 5761 5762 5763 5764 5767 5769 5771 5773 5775 5775 5776 5778 5780 5780 5781 5781 5780 5780 5781 5781 5781 5781 5781 5780 5780 5779 5778 5777 5776
5707 5713 5716 5719 5721 5725 5728 5731 5733 5735 5736 5738 5739 5739 5740 5743 5745 5747 5750 5752 5754 5755 5756 5757 5760 5762 5764 5765 5768 5769 5770 5772 5774 5773 5774 5774 5773 5775 5774 5775 5775 5774 5774 5773 5773 5772 5771 5770 5769
5701 5704 5708 5712 5715 5717 5720 5724 5727 5727 5729 5731 5733 5734 5734 5735 5737 5739 5741 5744 5747 5748 5749 5750 5752 5754 5756 5758 5760 5761 5763 5766 5767 5767 5766 5766 5767 5767 5767 5767 5768 5767 5768 5767 5766 5765 5764 5763 5761
5696 5700 5703 5705 5708 5710 5712 5715 5718 5721 5723 5724 5724 5725 5727 5728 5729 5729 5731 5734 5738 5741 5743 5744 5744 5747 5748 5750 5752 5754 5756 5758 5760 5760 5759 5760 5761 5760 5760 5760 5761 5760 5760 5760 5759 5758 5757 5755 5753
5690 5694 5697 5699 5701 5703 5704 5708 5708 5712 5714 5715 5716 5717 5718 5719 5718 5719 5720 5724 5727 5731 5734 5735 5736 5739 5741 5743 5745 5745 5747 5754 5753 5752 5752 5754 5753 5752 5752 5752 5752 5752 5752 5752 5752 5750 5749 5747 5745
5684 5687 5690 5692 5693 5694 5694 5700 5701 5703 5704 5703 5702 5703 5703 5703 5703 5704 5704 5708 5713 5717 5722 5725 5728 5730 5734 5735 5736 5736 5741 5745 5745 5746 5746 5747 5746 5744 5744 5745 5744 5745 5744 5744 5744 5742 5741 5739 5736
5679 5681 5683 5684 5684 5684 5687 5686 5693 5691 5691 5689 5687 5685 5685 5685 5688 5692 5694 5697 5700 5705 5710 5715 5717 5720 5722 5725 5727 5730 5733 5736 5739 5739 5739 5740 5740 5738 5737 5738 5737 5737 5737 5736 5735 5734 5732 5730 5727
5673 5675 5675 5675 5674 5674 5676 5670 5687 5678 5676 5673 5670 5667 5668 5670 5673 5677 5681 5683 5687 5691 5696 5701 5705 5709 5712 5716 5720 5722 5724 5727 5732 5732 5732 5732 5732 5730 5731 5731 5730 5730 5729 5728 5727 5725 5723 5720 5717
5667 5667 5667 5666 5664 5664 5663 5659 5674 5665 5660 5656 5653 5651 5650 5651 5655 5660 5664 5669 5674 5677 5682 5689 5694 5699 5703 5707 5710 5713 5716 5721 5723 5724 5724 5724 5725 5724 5724 5723 5722 5721 5720 5719 5717 5715 5713 5710 5707
5659 5659 5657 5656 5655 5655 5651 5648 5654 5651 5646 5642 5639 5636 5638 5638 5639 5644 5648 5652 5659 5664 5669 5677 5683 5689 5693 5698 5701 5703 5709 5712 5713 5715 5716 5717 5717 5717 5717 5716 5715 5713 5712 5711 5708 5706 5704 5701 5697
5651 5652 5651 5646 5644 5644 5638 5638 5639 5635 5637 5630 5627 5625 5625 5626 5626 5629 5633 5637 5642 5650 5656 5664 5670 5676 5683 5688 5692 5695 5701 5704 5706 5707 5709 5710 5710 5709 5709 5708 5706 5705 5704 5702 5699 5697 5694 5691 5687
5646 5644 5642 5640 5638 5632 5630 5630 5628 5623 5621 5619 5613 5607 5606 5607 5610 5613 5619 5622 5628 5636 5643 5651 5658 5665 5672 5678 5682 5688 5691 5695 5698 5699 5700 5702 5702 5701 5701 5700 5699 5698 5695 5693 5690 5687 5684 5680 5676
5637 5639 5637 5633 5628 5624 5623 5617 5610 5604 5602 5596 5593 5590 5588 5585 5590 5596 5603 5607 5614 5619 5629 5637 5646 5655 5662 5668 5674 5680 5683 5686 5690 5692 5693 5693 5694 5693 5693 5692 5691 5689 5686 5684 5681 5678 5674 5670 5665
5631 5631 5629 5625 5622 5617 5609 5609 5597 5594 5588 5584 5579 5572 5569 5565 5569 5577 5584 5591 5599 5606 5615 5625 5635 5645 5653 5659 5667 5671 5675 5679 5682 5683 5685 5686 5686 5686 5685 5685 5683 5680 5677 5674 5671 5668 5663 5658 5653
5626 5625 5622 5618 5615 5605 5602 5598 5588 5581 5575 5570 5562 5558 5553 5548 5551 5558 5566 5576 5585 5592 5603 5614 5625 5637 5645 5651 5657 5663 5668 5671 5674 5676 5678 5678 5678 5678 5677 5676 5674 5671 5668 5665 5661 5657 5652 5647 5641
Wind_Speed
27 27 28 29 30 29 27 27 27 25 24 24 20 20 23 22 25 23 24 21 23 22 22 21 19 21 22 23 24 24 23 22 21 19 18 17 16 15 15 15 15 16 15 15 15 16 17 17 18
26 26 27 28 29 29 25 29 28 28 27 24 23 22 21 25 24 24 24 22 22 24 24 23 21 21 22 23 23 24 24 22 21 19 18 17 17 17 16 16 16 17 17 17 17 17 19 19 19
26 26 27 27 25 22 25 34 31 29 29 28 26 24 26 28 23 24 23 23 22 23 25 23 21 22 23 23 24 24 24 23 21 20 19 17 17 17 17 17 17 17 17 17 18 18 19 20 21
28 29 30 29 21 18 23 32 34 31 31 29 28 25 26 24 26 24 24 23 23 24 23 24 25 22 22 24 24 24 24 23 23 21 20 19 18 17 17 18 18 18 19 19 19 18 18 19 21
33 32 32 29 19 20 24 28 28 30 35 32 29 30 30 27 25 25 24 23 23 25 24 24 26 25 24 24 26 26 25 25 25 23 21 21 19 18 18 18 18 18 19 20 20 21 22 23 23
37 35 35 29 21 24 27 29 28 28 31 32 31 33 32 29 29 26 25 25 24 26 25 24 26 26 26 26 25 24 25 26 25 24 23 22 21 19 19 18 18 18 18 19 19 20 21 21 21
38 38 35 33 26 30 30 35 31 32 32 30 30 30 37 34 30 29 28 27 27 27 27 26 25 26 26 26 26 25 25 25 24 24 24 24 22 22 20 19 18 18 17 17 17 19 20 20 21
39 39 37 35 26 29 34 40 35 36 33 38 30 28 33 36 34 33 31 31 30 30 29 27 27 27 27 28 27 25 24 24 24 23 24 24 25 23 22 21 20 19 18 17 18 20 20 20 20
38 42 38 31 29 29 41 36 39 40 37 36 34 33 37 32 33 35 34 33 33 31 30 29 28 28 28 28 27 27 26 25 24 23 23 24 25 26 24 23 22 20 20 20 20 20 21 22 23
40 41 35 31 33 36 40 36 40 42 39 38 34 36 36 36 34 33 36 35 35 33 32 31 31 29 29 29 29 29 28 26 25 24 23 23 25 27 27 26 25 24 23 23 23 24 25 26 26
40 40 33 34 33 35 38 35 41 43 43 36 34 35 33 32 34 34 33 37 37 36 34 33 32 32 32 32 31 31 30 29 27 25 25 25 26 28 30 29 27 26 26 27 28 27 27 27 27
40 38 37 34 31 35 35 35 38 37 38 37 35 34 24 29 31 32 34 35 36 38 36 35 35 34 33 34 34 33 32 30 28 26 26 27 28 29 30 30 29 29 29 30 30 29 28 29 29
38 36 37 32 33 32 34 33 34 37 36 33 32 32 29 29 30 30 31 33 36 36 37 38 37 36 34 34 35 34 33 31 28 29 29 29 29 30 31 32 30 30 31 32 31 31 30 30 30
40 36 34 33 30 31 31 32 33 33 32 35 36 34 32 33 32 33 31 31 33 36 37 40 39 38 37 35 36 36 34 32 30 30 31 31 31 32 32 31 31 31 33 33 33 32 31 31 32
39 37 33 31 30 29 29 30 30 30 34 35 35 35 36 36 37 36 35 32 32 36 39 39 40 39 37 37 37 36 36 35 32 34 33 32 34 33 32 32 31 32 33 33 33 33 33 32 33
40 38 35 33 30 31 28 25 27 29 33 35 38 37 37 37 38 37 36 36 35 34 38 39 40 41 40 39 38 38 38 35 33 35 34 34 35 35 29 36 32 33 33 33 33 34 34 33 33
41 38 35 35 33 32 29 28 28 27 29 31 34 37 38 36 35 38 38 38 37 38 37 39 39 41 43 41 39 39 38 35 33 34 33 35 36 36 36 37 35 34 34 34 34 35 34 35 35
40 40 37 33 32 31 32 32 29 32 33 34 34 35 37 37 34 35 39 40 39 37 38 39 39 41 44 44 42 40 38 35 33 36 36 36 37 37 39 38 37 37 36 36 36 35 35 36 37
36 33 31 30 30 32 33 33 33 33 32 34 36 37 38 39 40 39 38 40 43 42 40 39 41 42 44 45 45 44 41 38 33 36 39 37 36 37 38 40 39 40 38 38 37 37 37 38 39
30 30 30 30 31 34 35 35 38 37 39 41 42 43 43 43 45 46 45 42 44 46 44 43 42 43 44 43 46 48 47 39 37 38 38 38 36 37 37 40 41 40 41 40 39 39 39 40 41
28 30 31 34 35 36 40 39 41 43 44 48 50 52 55 55 55 53 54 51 47 48 48 45 44 43 44 44 44 49 47 41 43 40 38 39 38 39 37 36 38 40 42 43 42 42 42 42 43
28 31 33 36 38 40 41 45 42 47 50 53 55 56 59 60 57 56 57 57 55 50 51 50 48 47 45 46 46 44 46 46 43 41 40 40 39 40 40 37 39 41 44 45 45 45 46 45 45
31 32 35 38 41 44 45 52 43 50 51 53 54 56 56 54 57 57 57 58 58 56 54 55 53 51 50 45 45 45 43 42 42 40 41 40 42 40 38 39 41 41 44 45 46 46 47 47 48
31 34 36 40 44 47 48 52 44 50 51 51 53 49 52 58 58 59 60 58 60 59 56 55 55 51 50 47 45 47 43 38 39 40 40 41 40 40 38 38 40 41 43 44 45 45 47 48 49
33 35 38 42 43 45 48 52 49 47 35 41 44 47 44 44 51 59 61 62 60 60 57 54 54 52 50 47 45 47 42 40 39 41 42 39 39 39 39 38 40 42 44 45 46 47 48 48 49
32 34 34 40 44 45 50 51 41 42 39 47 49 51 51 50 51 51 52 59 62 60 57 54 55 52 51 45 44 46 43 41 39 41 41 40 39 40 41 40 42 43 44 45 47 48 48 48 48
30 32 35 39 40 45 45 44 47 50 49 46 50 54 55 58 57 56 53 47 57 58 58 54 56 53 50 45 44 45 44 42 40 40 40 39 40 40 41 41 41 44 44 46 47 48 47 47 48
32 30 32 35 40 44 46 51 53 54 49 54 54 53 58 58 54 57 56 51 43 48 57 54 56 53 49 45 46 46 44 43 40 37 38 40 39 40 41 41 41 42 43 45 46 46 46 49 51
27 26 29 35 41 45 51 50 52 46 46 48 50 53 54 57 58 56 56 56 45 45 53 52 55 54 49 46 44 46 44 42 39 38 38 39 39 40 40 41 42 43 44 45 45 46 48 51 55
23 22 29 34 36 43 46 46 43 41 42 42 40 42 46 50 42 46 53 50 43 47 51 51 51 52 48 46 46 45 45 42 38 38 38 38 38 39 40 41 42 44 46 45 46 48 51 54 57
Wind_Direction
233 236 237 241 242 243 244 247 247 247 246 243 249 244 242 251 245 237 253 250 245 247 252 253 243 244 247 247 245 245 248 253 253 259 265 270 268 264 263 264 262 260 258 258 259 263 266 268 272
234 236 237 240 243 245 245 248 246 247 250 249 245 243 241 244 247 245 253 255 253 251 250 251 251 246 248 249 248 248 247 247 249 252 260 265 270 268 262 258 256 256 253 254 260 264 269 274 278
235 238 242 242 243 248 244 248 246 246 246 247 247 244 241 245 247 251 252 254 255 254 255 255 255 251 250 250 251 252 251 253 253 257 258 261 261 257 258 256 255 257 260 262 263 265 270 276 278
238 240 243 244 242 239 244 250 246 245 247 247 249 249 248 246 244 246 249 252 255 254 252 256 259 254 254 251 252 254 253 251 252 255 260 261 258 252 254 256 256 257 258 262 266 267 271 275 276
240 241 244 246 239 239 244 250 250 250 250 246 245 249 250 251 249 248 251 252 254 255 257 261 263 262 260 256 254 255 255 255 255 255 256 260 259 256 254 254 256 258 260 262 264 268 271 271 272
242 243 244 248 242 242 244 248 247 248 250 250 247 247 252 252 252 249 247 250 252 254 255 255 262 262 260 261 263 259 259 260 261 263 264 261 262 259 260 260 262 263 267 269 269 270 270 273 275
245 244 247 247 239 242 245 246 246 247 247 251 249 251 250 249 253 255 252 248 248 250 251 254 254 259 257 255 259 261 261 261 263 265 266 264 262 262 263 265 265 265 266 269 271 272 273 273 274
246 248 244 244 242 241 244 248 249 247 249 247 250 253 256 251 248 250 252 253 253 253 254 256 259 261 256 259 260 257 256 258 261 261 261 261 262 261 260 263 264 263 263 263 263 267 269 270 270
245 245 245 246 243 241 240 249 246 248 245 252 252 252 256 261 249 247 250 252 253 254 258 260 258 263 265 266 262 259 257 257 257 259 261 262 259 258 259 260 262 260 259 259 261 264 267 270 276
245 247 248 248 242 237 241 242 239 249 246 248 252 254 255 253 251 251 248 252 255 257 259 261 261 260 264 266 265 261 258 257 259 263 267 267 262 258 256 257 259 260 261 263 264 268 273 277 281
243 247 246 244 244 239 237 241 239 245 248 248 250 251 249 249 251 253 251 249 253 256 259 260 263 265 264 264 263 265 262 256 258 263 269 272 269 264 259 256 255 258 261 263 267 268 272 276 281
241 246 246 243 237 237 239 241 241 248 246 247 243 249 251 252 252 253 255 254 253 253 256 259 261 262 262 263 264 263 263 262 261 263 268 271 272 268 264 260 258 256 258 261 265 268 271 275 279
239 240 243 238 238 238 237 237 239 243 243 247 249 249 249 252 255 256 256 254 254 255 254 255 256 259 260 259 261 262 264 264 263 263 266 270 274 272 268 262 260 260 258 260 264 268 269 273 278
235 236 236 237 235 235 236 233 237 241 243 245 248 248 250 251 252 254 254 254 255 253 252 252 255 257 259 259 258 258 259 263 263 264 268 271 272 274 271 266 261 261 259 260 264 267 270 273 279
234 232 230 231 230 231 231 232 243 236 243 250 254 255 255 253 250 251 253 253 250 249 250 251 252 255 258 258 257 257 258 258 260 264 270 271 272 273 273 267 262 260 260 262 265 267 270 273 278
230 229 227 228 228 231 234 234 242 241 242 252 256 258 259 259 255 252 252 251 252 250 251 251 251 253 255 257 259 259 259 261 261 263 267 267 267 271 266 271 263 263 263 263 264 267 270 273 279
227 227 229 229 230 235 237 240 238 244 242 249 255 261 265 266 263 254 251 250 251 250 251 251 250 251 252 254 257 260 262 263 261 263 267 267 263 265 263 261 264 264 264 265 266 269 271 275 280
226 227 228 232 233 235 238 244 239 245 243 250 255 258 264 267 267 262 255 249 247 249 248 252 250 250 251 253 255 258 262 263 262 262 264 265 264 262 264 262 260 263 265 266 269 272 274 277 282
227 228 229 229 234 236 241 246 249 250 250 252 256 256 259 266 268 263 256 252 246 245 250 252 253 248 252 253 254 256 259 261 262 263 264 267 270 264 266 262 260 261 264 268 271 274 276 280 284
223 227 232 236 240 245 246 249 255 258 259 259 261 262 264 264 263 263 261 255 250 246 245 247 251 251 251 254 255 257 256 260 262 262 266 269 270 265 264 262 259 262 263 267 270 274 278 281 285
231 236 243 248 249 253 257 254 258 262 266 268 269 266 264 264 260 255 254 253 248 244 243 243 247 252 250 250 253 256 260 257 259 263 268 267 267 266 264 265 268 269 266 267 271 275 279 282 285
239 246 252 257 262 265 265 265 267 270 269 266 264 263 262 262 259 255 254 254 252 246 242 240 242 247 247 246 248 256 257 255 257 262 267 267 266 267 268 268 270 270 270 270 272 277 280 282 284
249 253 260 264 267 270 272 275 275 275 271 268 270 269 267 262 258 255 251 250 251 250 244 241 240 243 247 245 245 250 257 258 255 259 263 265 264 266 267 267 269 272 272 273 274 276 280 282 284
256 262 266 270 273 273 274 277 276 276 279 277 273 268 265 261 257 254 251 247 247 248 247 244 242 240 243 244 242 246 251 257 255 256 263 265 266 266 269 270 272 273 274 275 276 278 280 283 286
263 270 274 274 273 275 279 282 281 283 278 267 264 267 267 266 262 254 250 249 244 245 246 243 240 239 239 242 238 242 248 254 255 256 260 264 268 268 270 272 272 274 276 277 279 280 282 284 285
269 273 278 278 282 286 286 282 284 282 273 273 276 273 268 265 263 266 260 250 245 241 242 240 236 235 235 239 237 239 245 251 257 257 259 265 265 267 272 275 276 277 277 281 282 284 284 284 285
269 273 279 286 284 282 283 286 286 282 283 281 281 280 274 269 260 258 260 258 246 240 237 236 233 231 231 234 235 237 242 247 253 255 259 266 266 269 272 275 276 278 281 283 285 285 284 286 289
271 280 283 284 285 287 291 289 293 295 301 295 291 285 281 273 262 253 248 245 252 238 233 232 229 229 228 231 232 236 240 243 250 253 259 264 266 269 271 274 277 281 284 286 285 284 287 290 293
279 281 283 284 289 291 290 299 296 302 292 292 294 302 284 265 256 246 243 240 239 241 226 226 227 226 225 229 231 234 238 241 247 251 257 262 265 267 271 275 279 283 287 286 286 288 291 294 296
275 280 287 291 296 292 303 303 303 293 290 295 308 303 291 262 253 246 240 233 233 229 218 220 222 223 222 225 229 234 237 240 247 252 258 263 267 269 273 279 283 286 288 287 289 292 295 297 300